Weather History for KD95 - January, 2014

Change the Weather History Date:

Sunday, January 19, 2014

  Actual Average (KFNT) Record (KFNT)
Temperature  
Mean Temperature 19 °F 22 °F  
Max Temperature 29 °F 29 °F 54 °F (1949)
Min Temperature 9 °F 15 °F -21 °F (1994)
Degree Days  
Heating Degree Days 46 43  
Month to date heating degree days 806  
Since 1 July heating degree days 3451  
Cooling Degree Days 0 0  
Month to date cooling degree days 0  
Year to date cooling degree days 0  
Moisture  
Dew Point 18 °F    
Average Humidity 85    
Maximum Humidity 95    
Minimum Humidity 73    
Precipitation  
Precipitation 0.00 in 0.05 in 1.04 in (1933)
Month to date precipitation 1.06  
Year to date precipitation 1.06  
Snow  
Snow 0.00 in 0.50 in 3.50 in ()
Month to date snowfall 8.1  
Since 1 July snowfall 22.8  
Snow Depth -    
Sea Level Pressure  
Sea Level Pressure 29.58 in    
Wind  
Wind Speed 9 mph (WSW)    
Max Wind Speed 25 mph    
Max Gust Speed 36 mph    
Visibility 10 miles    
Events Snow    
T = Trace of Precipitation, MM = Missing Value Source: NWS Daily Summary

Daily Weather History Graph

Daily Weather History Graph

Search for Another Location

Airport or City:

Trip Planner

Search our weather history database for the weather conditions in past years. The results will help you decide how hot, cold, wet, or windy it might be!

Date:

Astronomy

Jan. 19, 2014 Rise Set
Actual Time 7:59 AM EST 5:28 PM EST
Civil Twilight 7:28 AM EST 5:59 PM EST
Nautical Twilight 6:53 AM EST 6:34 PM EST
Astronomical Twilight 6:19 AM EST 7:08 PM EST
Moon 9:12 PM EST (1/19) 9:22 AM EST (1/19)
Length of Visible Light 10h 31m
Length of Day
9h 29m
Waning Gibbous, 89% of the Moon is Illuminated
Jan 19
Waning Gibbous
Jan 24
Last Quarter
Jan 30
New
Feb 6
First Quarter
Feb 14
Full

Hourly Weather History & Observations

Time (EST) Temp. Windchill Dew Point Humidity Pressure Visibility Wind Dir Wind Speed Gust Speed Precip Events Conditions
12:13 AM 15.3 °F 7.9 °F 12.2 °F 88% 29.78 in 10.0 mi SW 4.6 mph - N/A   Overcast
12:33 AM 14.7 °F 9.0 °F 12.0 °F 89% 29.77 in 10.0 mi WSW 3.5 mph - N/A   Overcast
12:54 AM 13.8 °F - 11.3 °F 90% 29.76 in 10.0 mi Calm Calm - N/A   Mostly Cloudy
1:13 AM 14.0 °F - 11.7 °F 90% 29.76 in 10.0 mi Calm Calm - N/A   Mostly Cloudy
1:34 AM 13.8 °F 8.0 °F 11.7 °F 91% 29.75 in 7.0 mi SSW 3.5 mph - N/A   Overcast
1:53 AM 12.7 °F - 10.9 °F 92% 29.73 in 7.0 mi Calm Calm - N/A Snow Light Snow
2:14 AM 12.9 °F 6.9 °F 11.3 °F 93% 29.72 in 7.0 mi SSW 3.5 mph - N/A   Mostly Cloudy
2:33 AM 11.7 °F 5.5 °F 10.4 °F 95% 29.73 in 7.0 mi SSW 3.5 mph - N/A   Scattered Clouds
2:53 AM 9.5 °F - 8.4 °F 95% 29.73 in 7.0 mi Calm Calm - N/A   Clear
3:14 AM 11.1 °F 3.1 °F 9.7 °F 94% 29.72 in 10.0 mi WSW 4.6 mph - N/A   Clear
3:33 AM 12.2 °F 2.9 °F 10.8 °F 94% 29.71 in 10.0 mi SW 5.8 mph - N/A   Clear
3:54 AM 12.2 °F 2.9 °F 10.8 °F 94% 29.71 in 10.0 mi WSW 5.8 mph - N/A   Clear
4:13 AM 12.0 °F 1.5 °F 10.4 °F 93% 29.70 in 10.0 mi SW 6.9 mph - N/A   Clear
4:34 AM 11.5 °F 0.9 °F 10.2 °F 95% 29.69 in 10.0 mi SW 6.9 mph - N/A   Clear
4:53 AM 11.3 °F 0.7 °F 10.2 °F 95% 29.69 in 10.0 mi SW 6.9 mph - N/A   Clear
5:13 AM 12.0 °F 2.7 °F 10.6 °F 94% 29.68 in 10.0 mi SW 5.8 mph - N/A   Clear
5:34 AM 12.4 °F 2.0 °F 10.9 °F 94% 29.67 in 10.0 mi SW 6.9 mph - N/A   Clear
5:53 AM 12.9 °F 0.7 °F 11.3 °F 93% 29.67 in 10.0 mi SW 9.2 mph - N/A   Clear
6:14 AM 13.1 °F 1.8 °F 11.7 °F 94% 29.65 in 10.0 mi SW 8.1 mph - N/A   Scattered Clouds
6:33 AM 14.7 °F 3.8 °F 13.1 °F 93% 29.64 in 10.0 mi WSW 8.1 mph - N/A   Mostly Cloudy
6:53 AM 15.4 °F 5.6 °F 13.3 °F 91% 29.63 in 10.0 mi SW 6.9 mph - N/A   Overcast
7:14 AM 16.3 °F 3.4 °F 14.0 °F 90% 29.62 in 10.0 mi SW 11.5 mph - N/A   Mostly Cloudy
7:33 AM 16.9 °F 4.8 °F 14.9 °F 92% 29.61 in 10.0 mi SW 10.4 mph - N/A   Scattered Clouds
7:54 AM 18.0 °F 6.9 °F 15.8 °F 91% 29.61 in 10.0 mi WSW 9.2 mph - N/A   Mostly Cloudy
8:13 AM 19.4 °F 6.0 °F 16.7 °F 89% 29.60 in 10.0 mi WSW 13.8 mph 19.6 mph N/A   Scattered Clouds
8:34 AM 20.3 °F 7.7 °F 17.4 °F 89% 29.59 in 10.0 mi WSW 12.7 mph 19.6 mph N/A   Mostly Cloudy
8:53 AM 21.2 °F 6.0 °F 18.1 °F 88% 29.57 in 10.0 mi WSW 19.6 mph 24.2 mph N/A   Overcast
9:14 AM 21.6 °F 9.3 °F 18.5 °F 88% 29.56 in 10.0 mi WSW 12.7 mph 26.5 mph N/A   Overcast
9:33 AM 21.9 °F 7.3 °F 18.5 °F 87% 29.56 in 10.0 mi WSW 18.4 mph 27.6 mph N/A   Overcast
9:53 AM 22.6 °F 8.7 °F 19.0 °F 86% 29.55 in 10.0 mi WSW 17.3 mph 24.2 mph N/A   Overcast
10:14 AM 23.0 °F 8.0 °F 19.0 °F 85% 29.54 in 10.0 mi WSW 20.7 mph 27.6 mph N/A   Overcast
10:33 AM 23.7 °F 8.5 °F 19.0 °F 82% 29.53 in 10.0 mi WSW 21.9 mph 26.5 mph N/A   Overcast
10:54 AM 24.8 °F 11.5 °F 19.4 °F 80% 29.52 in 10.0 mi WSW 17.3 mph 26.5 mph N/A   Overcast
11:13 AM 25.5 °F 12.0 °F 19.2 °F 77% 29.52 in 7.0 mi WSW 18.4 mph 28.8 mph N/A   Overcast
11:34 AM 25.7 °F 12.3 °F 19.4 °F 77% 29.50 in 7.0 mi WSW 18.4 mph 34.5 mph N/A   Overcast
11:53 AM 26.8 °F 14.1 °F 20.1 °F 76% 29.49 in 10.0 mi WSW 17.3 mph 26.5 mph N/A   Overcast
12:13 PM 27.5 °F 14.2 °F 20.5 °F 75% 29.48 in 10.0 mi WSW 19.6 mph 28.8 mph N/A   Overcast
12:34 PM 28.2 °F 14.2 °F 20.5 °F 73% 29.49 in 7.0 mi West 23.0 mph 35.7 mph N/A   Overcast
12:53 PM 28.0 °F 15.3 °F 20.5 °F 73% 29.49 in 10.0 mi West 18.4 mph 28.8 mph N/A   Overcast
1:14 PM 27.0 °F 11.9 °F 20.3 °F 76% 29.49 in 7.0 mi West 25.3 mph 33.4 mph N/A   Overcast
1:33 PM 26.6 °F 11.7 °F 20.3 °F 77% 29.49 in 10.0 mi West 24.2 mph 29.9 mph N/A   Overcast
1:54 PM 26.4 °F 11.8 °F 20.3 °F 78% 29.49 in 10.0 mi WSW 23.0 mph 33.4 mph N/A   Overcast
2:13 PM 25.7 °F 12.3 °F 19.6 °F 78% 29.49 in 10.0 mi West 18.4 mph 27.6 mph N/A   Overcast
2:33 PM 25.7 °F 11.9 °F 19.8 °F 78% 29.50 in 10.0 mi WSW 19.6 mph 28.8 mph N/A   Overcast
2:54 PM 25.7 °F 14.0 °F 19.9 °F 79% 29.49 in 10.0 mi WSW 13.8 mph 24.2 mph N/A   Overcast
3:13 PM 25.9 °F 13.8 °F 20.3 °F 79% 29.50 in 10.0 mi West 15.0 mph 20.7 mph N/A   Overcast
3:34 PM 26.2 °F 14.7 °F 20.8 °F 80% 29.51 in 10.0 mi West 13.8 mph 19.6 mph N/A   Overcast
3:53 PM 26.6 °F 15.2 °F 21.7 °F 82% 29.50 in 10.0 mi West 13.8 mph 25.3 mph N/A   Overcast
4:14 PM 27.1 °F 15.4 °F 22.8 °F 84% 29.52 in 10.0 mi WSW 15.0 mph 26.5 mph N/A   Overcast
4:34 PM 27.0 °F 15.6 °F 22.3 °F 83% 29.52 in 10.0 mi WSW 13.8 mph 23.0 mph N/A   Overcast
4:53 PM 27.0 °F 16.7 °F 22.6 °F 84% 29.52 in 10.0 mi WSW 11.5 mph 24.2 mph N/A   Overcast
5:14 PM 27.0 °F 16.1 °F 22.5 °F 83% 29.52 in 10.0 mi WSW 12.7 mph 23.0 mph N/A   Overcast
5:33 PM 26.6 °F 15.2 °F 21.7 °F 82% 29.53 in 10.0 mi SW 13.8 mph - N/A   Overcast
5:54 PM 26.2 °F 16.4 °F 21.6 °F 82% 29.54 in 10.0 mi WSW 10.4 mph - N/A   Overcast
6:13 PM 26.2 °F 14.2 °F 21.2 °F 81% 29.53 in 10.0 mi SW 15.0 mph 18.4 mph N/A   Overcast
6:34 PM 26.4 °F 16.6 °F 21.2 °F 81% 29.53 in 10.0 mi SW 10.4 mph 17.3 mph N/A   Overcast
6:54 PM 26.2 °F 15.8 °F 21.2 °F 81% 29.54 in 10.0 mi SW 11.5 mph - N/A   Overcast
7:13 PM 26.2 °F 15.8 °F 20.7 °F 79% 29.54 in 10.0 mi SW 11.5 mph - N/A   Overcast
7:34 PM 26.2 °F 15.8 °F 20.7 °F 79% 29.55 in 10.0 mi SW 11.5 mph 16.1 mph N/A   Overcast
7:53 PM 26.4 °F 15.5 °F 20.8 °F 79% 29.55 in 10.0 mi SW 12.7 mph - N/A   Overcast
8:13 PM 26.6 °F 16.8 °F 21.2 °F 80% 29.55 in 10.0 mi WSW 10.4 mph 17.3 mph N/A   Overcast
8:34 PM 26.6 °F 15.7 °F 21.4 °F 81% 29.55 in 10.0 mi SW 12.7 mph 19.6 mph N/A   Overcast
8:53 PM 26.8 °F 16.5 °F 21.7 °F 81% 29.54 in 10.0 mi SW 11.5 mph - N/A   Overcast
9:13 PM 27.1 °F 16.9 °F 22.1 °F 81% 29.53 in 10.0 mi SW 11.5 mph 19.6 mph N/A   Overcast
9:34 PM 27.3 °F 17.1 °F 22.6 °F 83% 29.53 in 10.0 mi WSW 11.5 mph 17.3 mph N/A   Overcast
9:53 PM 27.5 °F 18.6 °F 22.8 °F 83% 29.52 in 10.0 mi SW 9.2 mph - N/A   Overcast
10:14 PM 28.0 °F 19.3 °F 23.5 °F 83% 29.52 in 10.0 mi SW 9.2 mph - N/A   Overcast
10:34 PM 28.4 °F 19.1 °F 23.9 °F 83% 29.51 in 10.0 mi SW 10.4 mph - N/A   Overcast
10:53 PM 28.4 °F 19.1 °F 24.3 °F 84% 29.50 in 10.0 mi WSW 10.4 mph - N/A   Overcast
11:14 PM 29.1 °F 20.0 °F 24.8 °F 84% 29.50 in 10.0 mi WSW 10.4 mph - N/A   Overcast
11:34 PM 29.1 °F 22.1 °F 25.2 °F 85% 29.49 in 10.0 mi WSW 6.9 mph - N/A   Overcast
11:53 PM 29.3 °F 21.5 °F 25.5 °F 86% 29.49 in 10.0 mi WSW 8.1 mph - N/A   Overcast